TimeMDT,TemperatureF,Dew PointF,Humidity,Sea Level PressureIn,VisibilityMPH,Wind Direction,Wind SpeedMPH,Gust SpeedMPH,PrecipitationIn,Events,Conditions,WindDirDegrees,DateUTC
12:53 AM,50.0,28.9,44,29.83,10.0,South,5.8,-,N/A,,Clear,190,2014-04-20 06:53:00
1:53 AM,48.9,28.9,46,29.82,10.0,SSW,9.2,-,N/A,,Partly Cloudy,210,2014-04-20 07:53:00
2:53 AM,50.0,27.0,41,29.81,10.0,SW,10.4,-,N/A,,Scattered Clouds,230,2014-04-20 08:53:00
3:53 AM,48.9,26.1,41,29.81,10.0,SW,11.5,-,N/A,,Scattered Clouds,220,2014-04-20 09:53:00
4:53 AM,53.1,25.0,34,29.80,10.0,WSW,13.8,-,N/A,,Mostly Cloudy,240,2014-04-20 10:53:00
5:43 AM,55.0,25.0,31,29.89,10.0,NW,18.4,31.1,N/A,,Mostly Cloudy,310,2014-04-20 11:43:00
5:53 AM,52.0,27.0,38,29.85,10.0,WNW,10.4,-,N/A,,Mostly Cloudy,300,2014-04-20 11:53:00
6:53 AM,50.0,26.1,39,29.91,10.0,NW,12.7,-,N/A,,Mostly Cloudy,320,2014-04-20 12:53:00
7:41 AM,50.0,28.0,43,29.99,10.0,NW,11.5,-,N/A,,Mostly Cloudy,320,2014-04-20 13:41:00
7:53 AM,50.0,28.9,44,29.98,10.0,WNW,8.1,17.3,N/A,,Mostly Cloudy,300,2014-04-20 13:53:00
8:53 AM,52.0,30.0,43,30.00,10.0,WNW,16.1,25.3,N/A,,Mostly Cloudy,300,2014-04-20 14:53:00
9:53 AM,55.9,27.0,33,30.02,10.0,WNW,17.3,-,N/A,,Mostly Cloudy,290,2014-04-20 15:53:00
10:53 AM,59.0,25.0,27,30.04,10.0,WNW,16.1,26.5,N/A,,Scattered Clouds,300,2014-04-20 16:53:00
11:53 AM,62.1,21.0,21,30.03,10.0,NW,24.2,29.9,N/A,,Scattered Clouds,320,2014-04-20 17:53:00
12:53 PM,64.0,18.0,17,30.04,10.0,NW,17.3,27.6,N/A,,Scattered Clouds,310,2014-04-20 18:53:00
1:53 PM,64.9,12.9,13,30.03,10.0,WNW,18.4,31.1,N/A,,Scattered Clouds,290,2014-04-20 19:53:00
2:53 PM,66.0,12.0,12,30.02,10.0,NW,25.3,32.2,N/A,,Partly Cloudy,310,2014-04-20 20:53:00
3:53 PM,64.9,14.0,14,30.03,10.0,NNW,20.7,29.9,N/A,,Partly Cloudy,330,2014-04-20 21:53:00
4:53 PM,64.9,14.0,14,30.03,10.0,NNW,19.6,28.8,N/A,,Partly Cloudy,340,2014-04-20 22:53:00
5:53 PM,63.0,15.1,16,30.05,10.0,North,18.4,27.6,N/A,,Partly Cloudy,350,2014-04-20 23:53:00
6:53 PM,61.0,14.0,16,30.07,10.0,NNW,16.1,-,N/A,,Partly Cloudy,340,2014-04-21 00:53:00
7:53 PM,57.0,14.0,18,30.10,10.0,North,10.4,-,N/A,,Scattered Clouds,350,2014-04-21 01:53:00
8:53 PM,54.0,12.9,20,30.14,10.0,NNW,9.2,-,N/A,,Mostly Cloudy,340,2014-04-21 02:53:00
9:53 PM,51.1,16.0,25,30.17,10.0,NE,6.9,-,N/A,,Scattered Clouds,50,2014-04-21 03:53:00
10:53 PM,50.0,16.0,26,30.17,10.0,NNE,3.5,-,N/A,,Clear,30,2014-04-21 04:53:00
11:53 PM,44.1,18.0,35,30.19,10.0,Calm,Calm,-,N/A,,Clear,0,2014-04-21 05:53:00